Find Explorer 25

NORAD ID: 932 Int'l Des: 1964-076 Owner: LARCN Country: US operational
LEOELLIPTICALPOLAR

当前视图

正在加载3D地球...

About Explorer 25

Explorer 25 (NORAD 932) is a satellite by LARCN of US. It operates in LEO, ELLIPTICAL, POLAR orbit

即将过境

Passes for default location (London). Set your location on the main map for personalized predictions.

高度历史

Loading altitude history...

两行轨道根数

1 932U 64076B 26195.45149752 .00000395 00000-0 13698-3 0 9994
2 932 81.3410 357.4876 1118106 206.4706 147.4892 12.67241113822584
Epoch: Jul 14, 2026 • Age: 7 hours

当前状态

高度 630.3 km
远地点 / 近地点 N/A
速度 7.91 km/s
星下点 5.53°N, 18.7°W
类型 other

Most Searched